sat.trackr.live / text

‹ back to catalog

STARLINK-36866

NORAD 67895 · 2026-035S

PAYLOAD ACTIVE UNKNOWN

§ Identity

Operator
Country
US
Launch date
2026-02-21
Launch site
AFWTR
Launch vehicle
Mass (kg)
RCS (m²)

Purposes: comms

External: N2YO · Heavens-Above · Gunter

§ Orbital elements

Epoch: 2026-05-25T01:51:53.669664Z

Period
93.91 min
Inclination
97.2854°
Eccentricity
0.0001726
Mean motion
15.33454131 rev/d
Perigee alt
464.3 km
Apogee alt
466.7 km
Semi-major
6,843.7 km
B*
4.0937e-4
RAAN
78.5884°
Arg perigee
89.9860°
Mean anomaly
270.1580°
Rev number
1,569

§ Raw data

STARLINK-368661 67895U 26035S   26145.07770451  .00013168  00000+0  40937-3 0  99942 67895  97.2854  78.5884 0001726  89.9860 270.1580 15.33454131 15692

JSON: /api/v1/satellites/67895 · /tle

For live sub-satellite position, see the globe view (requires WebGL).

§ Visibility from observer

Set your observer location to see the next 7 days of passes ≥ 10°. The values pass through the URL so the page stays shareable.

No JS? Fill the form by hand. The geolocation button needs JavaScript.